Probability
0 0 0 0 0 0 0 0 6 23 23 13 16 10 3 0 0 0 0 0 0 0 0 0 0 0 0 0 0 0 0 0 0 0 0 0 0 0 0 0 0 0 0
0 0 0 0 0 0 0 0 3 13 10 10 10 3 0 0 0 0 0 0 0 0 0 0 0 0 0 0 0 0 0 0 0 0 0 0 0 0 0 0 0 0 0
0 0 0 0 0 0 0 0 3 10 3 6 0 0 0 0 0 0 0 0 0 0 0 0 0 0 0 0 0 0 0 0 0 0 0 0 0 0 0 0 0 0 0
0 0 0 0 0 0 0 0 0 0 0 0 0 0 0 0 0 0 0 0 0 0 0 0 0 0 0 0 0 0 0 0 0 0 0 0 0 0 0 0 0 0 0
0 0 0 0 0 0 0 0 0 0 0 0 0 0 0 0 0 0 0 0 0 0 0 0 0 0 0 0 0 0 0 0 0 0 0 0 0 0 0 0 0 0 0
0 0 0 0 0 0 0 0 0 0 0 0 0 0 0 0 0 0 0 0 0 0 0 0 0 0 0 0 0 0 0 0 0 0 0 0 0 0 0 0 0 0 0
0 0 0 0 0 0 0 0 0 0 0 0 0 0 0 0 0 0 0 0 0 0 0 0 0 0 0 0 0 0 0 0 0 0 0 0 0 0 0 0 0 0 0
0 0 0 0 0 0 0 0 0 0 0 0 0 0 0 0 0 0 0 0 0 0 0 0 0 0 0 0 0 0 0 0 0 0 0 0 0 0 0 0 0 0 0
0 0 0 0 0 0 0 0 0 0 0 0 0 0 0 0 0 0 0 0 0 0 0 0 0 0 0 0 0 0 0 0 0 0 0 0 0 0 0 0 0 0 0
0 0 0 0 0 0 0 0 0 0 0 0 0 0 0 0 0 0 0 0 0 0 0 0 0 0 0 0 0 0 0 0 0 0 0 0 0 0 0 0 0 0 0
0 0 0 0 0 0 0 0 0 0 0 0 0 0 0 0 0 0 0 0 0 0 0 0 0 0 0 0 0 0 0 0 0 0 0 0 0 0 0 0 0 0 0
0 0 0 0 0 0 0 0 0 0 0 0 0 0 0 0 0 0 0 0 0 0 0 0 0 0 0 0 0 0 0 0 0 0 0 0 0 0 0 0 0 0 0
0 0 0 0 0 0 0 0 0 0 0 0 0 0 0 0 0 0 0 0 0 0 0 0 0 0 0 0 0 0 0 0 0 0 0 0 0 0 0 0 0 0 0
0 0 0 0 0 0 0 0 0 0 0 0 0 0 0 0 0 0 0 0 0 0 0 0 0 0 0 0 0 0 0 0 0 0 0 0 0 0 0 0 0 0 0
0 0 0 0 0 0 0 0 0 0 0 0 0 0 0 0 0 0 0 0 0 0 0 0 0 0 0 0 0 0 0 0 0 0 0 0 0 0 0 0 0 0 0
0 0 0 0 0 0 0 0 0 0 0 0 0 0 0 0 0 0 0 0 0 0 0 0 0 0 0 0 0 0 0 0 0 0 0 0 0 0 0 0 0 0 0
0 0 0 0 0 0 0 0 0 0 0 0 0 0 0 0 0 0 0 0 0 0 0 0 0 0 0 0 0 0 0 0 0 0 0 0 0 0 0 0 0 0 0
0 0 0 0 0 0 0 0 0 0 0 0 0 0 0 0 0 0 0 0 0 0 0 0 0 0 0 0 0 0 0 0 0 0 0 0 0 0 0 0 0 0 0
0 0 0 0 0 0 0 0 0 0 0 0 0 0 0 0 0 0 0 0 0 0 0 0 0 0 0 0 0 0 0 0 0 0 0 0 0 0 0 0 0 0 0
0 0 0 0 0 0 0 0 0 0 0 0 0 0 0 0 0 0 0 0 0 0 0 0 0 0 0 0 0 0 0 0 0 0 0 0 0 0 0 0 0 0 0
0 0 0 0 0 0 0 0 0 0 0 0 0 0 0 0 0 0 0 0 0 0 0 0 0 0 0 0 0 0 0 0 0 0 0 0 0 0 0 0 0 0 0
0 0 0 0 0 0 0 0 0 0 0 0 0 0 0 0 0 0 0 0 0 0 0 0 0 0 0 0 0 0 0 0 0 0 0 0 0 0 0 0 0 0 0
0 0 0 0 0 0 0 0 0 0 0 0 0 0 0 0 0 0 0 0 0 0 0 0 0 0 0 0 0 0 0 0 0 0 0 0 0 0 0 0 0 0 0
0 0 0 0 0 0 0 0 0 0 0 0 0 0 0 0 0 0 0 0 0 0 0 0 0 0 0 0 0 0 0 0 0 0 0 0 0 0 0 0 0 0 0
0 0 0 0 0 0 0 0 0 0 0 0 0 0 0 0 0 0 0 0 0 0 0 0 0 0 0 0 0 0 0 0 0 0 0 0 0 0 0 0 0 0 0
0 0 0 0 0 0 0 0 0 0 0 0 0 0 0 0 0 0 0 0 0 0 0 0 0 0 0 0 0 0 0 0 0 0 0 0 0 0 0 0 0 0 0
Height
5731 5733 5736 5739 5742 5745 5748 5750 5752 5754 5756 5758 5760 5761 5762 5763 5764 5764 5764 5764 5764 5763 5763 5763 5762 5762 5761 5760 5758 5756 5754 5751 5748 5745 5742 5739 5735 5731 5727 5723 5720 5716 5711
5719 5722 5725 5728 5732 5736 5739 5742 5744 5746 5748 5751 5752 5754 5755 5756 5757 5757 5757 5757 5757 5756 5756 5756 5755 5754 5753 5752 5750 5748 5746 5743 5740 5736 5733 5729 5726 5722 5717 5712 5708 5703 5699
5707 5710 5713 5717 5722 5726 5730 5733 5736 5738 5741 5743 5745 5747 5747 5748 5749 5750 5750 5750 5750 5749 5749 5748 5747 5746 5745 5743 5741 5739 5737 5734 5731 5727 5724 5720 5716 5712 5708 5702 5696 5691 5685
5694 5697 5701 5705 5710 5715 5719 5723 5726 5729 5732 5735 5737 5739 5740 5741 5742 5742 5743 5743 5742 5742 5741 5741 5739 5738 5737 5735 5733 5730 5727 5724 5721 5717 5713 5709 5704 5701 5698 5694 5687 5680 5674
5680 5684 5689 5693 5698 5703 5708 5712 5716 5720 5723 5726 5728 5731 5733 5734 5735 5735 5735 5735 5735 5735 5734 5733 5732 5730 5728 5726 5724 5721 5717 5714 5710 5706 5702 5698 5693 5688 5684 5681 5675 5669 5662
5665 5669 5674 5679 5685 5690 5696 5701 5706 5710 5714 5718 5720 5723 5725 5726 5727 5727 5728 5728 5728 5727 5726 5725 5723 5722 5719 5717 5714 5711 5707 5704 5700 5695 5690 5686 5681 5675 5670 5665 5660 5655 5648
5648 5654 5659 5665 5672 5678 5685 5691 5696 5701 5705 5709 5712 5715 5717 5719 5720 5720 5720 5720 5720 5719 5718 5717 5715 5713 5711 5708 5705 5701 5697 5693 5689 5684 5679 5673 5668 5662 5655 5649 5643 5638 5631
5631 5637 5643 5650 5658 5665 5673 5680 5686 5691 5696 5701 5704 5707 5710 5711 5712 5713 5713 5713 5712 5712 5710 5709 5707 5704 5701 5698 5695 5691 5687 5682 5677 5672 5666 5660 5654 5647 5640 5633 5626 5620 5615
5614 5620 5626 5635 5643 5652 5660 5668 5675 5682 5687 5692 5696 5699 5702 5704 5705 5705 5705 5705 5705 5704 5702 5700 5698 5695 5692 5689 5685 5680 5676 5671 5666 5660 5653 5647 5640 5633 5625 5617 5608 5601 5594
5596 5602 5610 5620 5629 5639 5648 5657 5665 5672 5678 5683 5688 5691 5694 5696 5697 5698 5698 5698 5697 5695 5694 5691 5689 5686 5682 5679 5674 5670 5665 5659 5653 5647 5640 5633 5625 5617 5609 5600 5591 5582 5573
5578 5584 5593 5604 5616 5627 5637 5647 5655 5663 5670 5675 5680 5684 5687 5689 5690 5690 5690 5690 5689 5687 5685 5682 5680 5676 5673 5668 5664 5659 5653 5647 5641 5634 5626 5618 5610 5601 5592 5583 5574 5564 5554
5562 5568 5578 5591 5604 5617 5628 5638 5647 5655 5662 5668 5673 5677 5680 5682 5683 5683 5683 5682 5680 5678 5676 5674 5671 5667 5663 5658 5653 5648 5641 5635 5628 5620 5612 5603 5594 5585 5576 5566 5556 5546 5535
5551 5558 5569 5582 5596 5610 5622 5632 5641 5649 5656 5662 5666 5670 5673 5674 5675 5676 5675 5674 5672 5670 5668 5665 5661 5657 5653 5648 5642 5636 5629 5622 5614 5606 5598 5588 5579 5570 5560 5549 5538 5527 5515
5545 5553 5565 5578 5592 5605 5617 5627 5636 5644 5651 5656 5660 5664 5666 5668 5668 5668 5667 5666 5664 5662 5659 5656 5652 5647 5642 5637 5631 5624 5617 5609 5601 5592 5583 5573 5563 5553 5543 5532 5520 5507 5494
5546 5554 5566 5578 5592 5604 5614 5624 5633 5640 5646 5651 5655 5658 5660 5661 5661 5660 5659 5658 5656 5653 5650 5646 5642 5637 5631 5625 5619 5612 5604 5596 5587 5577 5568 5558 5547 5536 5525 5513 5499 5484 5469
5552 5560 5570 5582 5593 5604 5614 5623 5630 5636 5642 5646 5649 5651 5653 5654 5653 5653 5652 5650 5647 5644 5641 5637 5632 5626 5620 5614 5607 5599 5591 5582 5573 5563 5553 5543 5532 5521 5508 5494 5478 5460 5444
5561 5568 5577 5587 5597 5606 5614 5621 5628 5633 5637 5641 5643 5645 5646 5647 5647 5646 5644 5642 5639 5635 5631 5627 5621 5615 5609 5602 5594 5586 5577 5568 5558 5548 5538 5528 5516 5503 5490 5475 5459 5440 5422
5571 5577 5585 5592 5600 5607 5614 5619 5625 5629 5633 5636 5638 5639 5640 5640 5639 5638 5636 5633 5630 5626 5622 5616 5610 5604 5597 5590 5582 5573 5564 5554 5544 5533 5522 5511 5498 5483 5470 5456 5440 5422 5406
5580 5585 5590 5596 5602 5607 5613 5618 5622 5626 5628 5631 5633 5634 5634 5633 5632 5630 5628 5625 5621 5617 5612 5606 5599 5592 5585 5577 5568 5560 5551 5541 5530 5519 5506 5493 5480 5465 5450 5435 5420 5405 5392
5586 5590 5594 5598 5603 5608 5612 5616 5619 5622 5624 5626 5627 5628 5627 5626 5625 5622 5619 5616 5612 5607 5601 5595 5588 5581 5573 5564 5555 5546 5537 5528 5518 5504 5490 5475 5460 5444 5427 5414 5402 5391 5381
5590 5593 5596 5600 5603 5607 5610 5614 5616 5619 5620 5621 5622 5621 5621 5619 5617 5614 5611 5607 5602 5597 5591 5584 5577 5569 5561 5552 5543 5532 5522 5512 5500 5487 5472 5457 5441 5425 5410 5397 5387 5378 5371
5592 5595 5597 5600 5603 5606 5609 5611 5613 5615 5616 5616 5616 5615 5614 5612 5609 5606 5602 5597 5592 5586 5579 5572 5564 5556 5547 5539 5529 5519 5507 5495 5483 5469 5454 5438 5423 5408 5395 5385 5376 5369 5362
5593 5596 5598 5600 5602 5605 5607 5608 5609 5610 5611 5611 5610 5608 5606 5604 5601 5597 5592 5587 5581 5575 5568 5561 5553 5544 5535 5526 5517 5506 5493 5480 5466 5451 5435 5420 5405 5393 5383 5374 5367 5361 5355
5594 5596 5597 5599 5601 5602 5604 5605 5606 5606 5606 5605 5604 5602 5599 5596 5592 5588 5582 5577 5571 5564 5557 5550 5542 5533 5524 5515 5504 5493 5480 5466 5451 5435 5419 5404 5391 5381 5373 5366 5360 5354 5348
5593 5595 5596 5598 5599 5600 5601 5601 5601 5601 5600 5599 5597 5594 5591 5587 5583 5578 5572 5566 5560 5553 5546 5539 5531 5522 5513 5502 5490 5477 5464 5449 5434 5418 5404 5391 5381 5372 5365 5359 5354 5348 5342
5592 5593 5595 5596 5596 5597 5597 5597 5597 5596 5594 5592 5590 5587 5583 5578 5573 5568 5562 5555 5549 5542 5535 5527 5519 5509 5499 5487 5475 5460 5445 5430 5416 5402 5390 5381 5373 5366 5360 5354 5348 5342 5335
Wind_Speed
42 42 43 43 43 43 43 43 43 42 41 39 38 37 36 36 36 36 35 35 35 34 34 34 34 34 35 35 36 37 38 39 41 42 43 44 45 46 47 49 50 51 52
45 45 44 44 44 44 44 44 44 43 42 41 39 38 37 36 36 36 36 35 35 35 35 35 35 36 36 37 37 38 39 41 42 43 45 47 47 48 49 51 53 54 55
48 48 47 46 45 45 45 45 44 44 43 42 41 39 38 37 36 36 36 37 36 36 36 36 37 37 38 38 39 40 41 43 43 45 46 48 49 49 50 53 55 56 58
50 50 50 48 47 46 45 45 45 44 43 42 41 40 39 37 36 36 36 37 37 37 37 37 38 38 39 39 41 42 43 44 45 47 48 50 51 52 52 53 55 57 59
53 52 52 51 50 48 47 46 45 44 43 42 41 40 38 37 37 37 37 37 37 37 38 38 38 39 40 41 42 43 45 46 47 49 50 52 54 56 57 56 56 58 60
55 55 55 54 53 52 50 48 47 45 43 42 41 39 38 38 37 37 37 37 37 37 38 38 39 40 41 42 43 44 46 48 49 51 53 54 56 58 60 60 61 61 62
58 58 57 56 56 54 51 50 48 46 44 43 41 39 38 38 38 37 37 37 37 37 38 39 39 40 41 42 44 45 47 49 51 53 55 57 59 60 62 64 65 66 67
57 58 58 57 57 56 54 51 49 47 45 43 41 39 38 38 38 37 37 37 37 38 39 39 40 41 42 43 45 47 50 52 53 55 57 59 61 63 65 67 69 69 69
54 56 57 57 57 56 54 52 50 48 46 43 41 40 38 38 38 38 37 37 37 38 39 40 40 41 42 44 46 49 51 53 55 57 59 61 63 65 68 69 71 72 73
51 54 56 56 55 55 54 52 50 48 46 44 42 40 38 38 38 37 37 37 38 39 39 40 40 41 43 45 48 51 53 55 57 59 61 63 66 68 69 71 72 74 75
46 50 54 55 55 54 53 52 50 47 45 43 41 39 37 37 37 37 37 37 37 38 39 39 40 42 44 47 50 53 55 57 59 61 63 66 68 69 71 72 73 75 77
39 44 49 52 52 52 51 50 48 46 43 41 39 38 37 36 36 36 36 37 37 38 38 39 40 43 46 49 52 54 56 58 61 63 65 67 69 71 72 73 75 77 81
31 37 44 48 49 49 48 47 46 43 41 39 37 36 36 36 36 36 36 36 37 37 38 39 42 45 48 51 53 55 58 60 62 65 67 68 70 71 73 75 78 81 86
26 33 40 44 46 46 45 44 42 40 38 37 36 35 35 35 35 35 36 36 36 37 38 41 44 47 50 52 55 57 59 61 64 66 68 69 71 72 74 78 82 87 91
22 31 37 40 42 42 42 41 39 36 35 34 34 34 34 34 35 35 34 35 36 37 40 43 46 49 51 54 56 58 60 63 65 67 68 70 72 74 78 82 87 92 96
22 30 35 38 38 38 37 36 34 32 32 31 31 32 32 33 33 33 33 34 36 39 42 45 48 50 53 55 57 60 62 64 66 67 69 71 73 77 82 87 92 96 97
23 29 32 34 34 34 32 30 29 29 29 29 29 30 31 31 31 32 33 35 38 41 44 47 49 51 54 56 59 61 63 65 66 68 70 73 77 82 86 91 94 94 90
23 27 28 29 29 28 27 26 26 26 26 27 27 28 28 29 30 31 34 37 40 42 45 48 50 52 55 57 60 62 63 65 67 69 73 77 81 87 91 93 91 85 76
20 22 23 23 23 23 22 22 23 23 23 24 24 25 26 28 30 33 36 38 41 43 46 48 51 54 56 58 60 62 63 65 67 72 77 81 86 91 93 90 83 73 62
16 17 18 18 19 19 19 19 19 20 20 21 22 24 26 29 32 34 36 39 42 44 47 50 52 55 57 59 60 62 63 66 70 76 81 87 91 92 90 82 71 59 49
12 13 14 15 15 16 16 16 17 17 18 20 22 25 27 30 32 34 37 40 43 45 48 51 54 55 57 58 60 63 66 70 75 80 85 90 91 88 80 69 58 48 41
11 11 12 12 12 12 13 14 15 17 19 21 23 25 28 30 33 35 38 41 44 46 49 52 54 55 57 58 61 65 70 75 79 84 89 90 86 77 67 56 46 40 36
8 9 9 9 10 10 12 13 15 17 19 21 23 26 28 31 34 37 39 42 45 47 49 51 53 55 57 60 64 68 74 79 83 87 88 83 75 64 53 44 38 34 33
7 7 8 8 9 10 12 14 15 17 19 22 24 27 30 32 35 38 41 44 46 48 49 51 52 55 58 62 67 72 77 82 85 86 81 71 61 50 42 36 32 31 31
7 8 8 9 10 11 12 14 16 18 21 23 26 29 31 34 37 40 42 44 46 48 49 51 53 56 60 66 71 76 81 84 85 79 69 58 48 40 34 31 30 31 32
8 8 8 9 10 11 13 15 18 20 23 25 28 31 33 36 39 41 43 44 46 48 50 52 56 60 65 70 75 80 83 84 78 67 56 45 37 32 29 29 30 32 34
Wind_Direction
252 250 247 243 242 241 241 242 244 246 248 250 252 253 255 256 257 257 258 260 261 262 263 264 265 267 271 273 276 280 283 286 288 290 291 292 293 294 294 295 295 294 293
251 249 248 245 242 241 241 241 243 245 247 249 251 253 254 256 256 257 259 261 261 263 264 264 267 270 273 276 278 281 284 286 288 290 292 293 294 295 296 296 296 295 295
249 248 247 245 242 240 240 241 242 243 246 248 250 252 254 255 256 257 259 260 262 263 264 266 269 272 275 278 280 283 285 288 289 291 292 293 294 294 295 296 296 296 296
248 246 244 243 241 239 238 239 240 241 244 247 249 251 253 255 256 257 258 261 262 264 266 268 270 273 276 279 282 285 287 289 290 292 293 294 295 295 295 295 295 295 295
248 245 242 241 239 237 236 236 238 239 242 245 248 251 254 256 257 257 259 261 263 264 267 269 272 275 278 281 284 286 288 290 292 293 295 295 296 296 296 296 295 295 295
248 245 241 239 237 236 234 234 235 237 240 243 247 250 253 255 256 258 259 261 263 265 267 270 273 276 280 283 285 287 289 291 293 295 296 297 297 297 297 297 297 297 296
249 245 242 238 236 235 234 233 234 236 239 242 245 248 252 254 256 258 259 261 263 266 268 272 275 278 281 284 286 289 291 292 295 296 297 298 298 299 299 299 299 299 298
248 244 241 237 234 233 232 232 233 234 237 240 244 247 250 254 256 257 259 261 263 266 270 273 276 279 282 286 288 290 292 294 296 298 299 299 299 300 300 300 300 300 300
247 242 238 235 232 230 229 229 230 231 234 238 242 245 249 252 255 257 259 262 265 268 271 274 278 281 284 287 289 292 294 297 298 299 300 300 301 301 302 302 302 302 302
247 241 235 232 228 226 225 225 226 228 231 235 239 243 247 251 254 257 259 262 266 270 273 276 279 283 286 289 291 294 297 298 300 300 301 302 302 303 303 304 304 304 304
246 238 230 226 223 222 221 221 223 225 228 232 237 242 247 251 254 257 260 264 268 272 275 278 282 285 288 291 294 297 298 300 301 301 302 303 304 304 305 305 305 305 306
242 232 223 217 217 216 216 217 219 222 226 231 236 241 246 250 254 258 262 267 271 274 277 281 284 288 291 294 296 298 300 301 302 303 303 304 305 306 306 307 307 307 307
232 219 212 208 208 209 211 213 216 219 224 230 235 241 246 250 255 260 265 269 273 276 280 283 287 290 293 296 298 299 301 302 303 304 305 305 306 307 308 308 308 308 309
212 205 201 198 200 202 205 208 212 217 223 229 235 241 247 252 257 262 267 271 275 279 283 287 290 293 296 298 299 301 302 303 304 305 306 307 308 308 309 309 310 310 310
192 190 189 190 192 195 199 204 210 216 223 230 236 242 248 254 259 265 269 273 277 282 286 289 292 295 297 299 301 302 303 304 305 306 307 308 309 310 310 311 312 312 312
172 174 177 180 185 190 196 202 209 217 225 232 238 244 250 256 262 266 271 276 281 285 289 292 295 297 299 300 301 303 304 305 306 307 308 310 310 311 312 313 313 313 313
159 163 169 175 181 187 194 203 212 220 228 234 240 247 253 259 264 270 275 280 285 289 292 294 296 298 300 301 303 304 305 307 308 309 310 311 312 312 313 314 314 314 314
152 159 166 174 181 189 198 206 214 222 229 236 243 249 255 262 268 274 280 284 288 291 294 296 298 300 301 302 304 305 307 308 309 310 311 312 313 314 314 315 315 314 314
153 160 167 175 183 192 200 209 217 224 232 239 246 254 261 268 274 279 283 287 291 293 295 298 299 301 302 304 305 307 308 310 311 312 313 314 314 315 315 315 316 315 314
154 163 170 178 186 195 203 211 219 228 236 245 253 260 267 273 278 283 287 290 293 295 297 299 301 302 304 306 307 309 310 311 312 314 315 315 316 316 316 316 316 315 313
162 169 175 183 190 198 207 216 226 235 245 254 261 268 274 280 284 287 290 293 295 297 299 301 303 304 306 308 309 311 312 313 314 315 315 316 316 316 316 316 315 314 312
170 176 182 190 199 208 218 228 238 249 257 264 271 276 281 284 287 290 293 295 297 299 301 303 305 306 308 310 312 313 314 315 316 316 316 317 317 316 316 315 315 314 313
181 188 195 203 214 225 236 246 255 262 268 273 278 282 285 288 291 293 296 298 300 302 304 305 307 308 310 312 313 314 315 316 316 317 317 317 317 316 316 315 315 314 314
198 207 214 226 233 243 253 260 266 271 275 280 284 287 290 292 294 297 299 301 302 304 305 307 309 310 311 313 314 314 315 316 317 317 317 317 317 316 316 316 316 316 317
223 225 230 240 247 256 264 271 275 279 283 286 289 292 294 296 298 300 302 303 304 306 307 309 310 311 312 313 315 316 317 318 318 318 318 318 317 317 318 318 319 320 321
229 235 242 252 261 266 272 279 283 286 288 291 294 296 298 300 302 303 304 305 306 308 309 310 312 313 314 315 316 317 318 319 319 319 319 318 318 319 320 321 322 323 323